Time,TemperatureF,DewpointF,PressureIn,WindDirection,WindDirectionDegrees,WindSpeedMPH,WindSpeedGustMPH,Humidity,HourlyPrecipIn,Conditions,Clouds,dailyrainin,SoftwareType,DateUTC
2013-04-03 00:00:00,32.8,17.1,29.87,ENE,59,3.0,6.0,52,0.00,,---,0.00,VWS V14.01,2013-04-03 04:00:00,
2013-04-03 00:01:00,32.9,17.2,29.87,WSW,248,3.0,14.0,52,0.00,,---,0.00,VWS V14.01,2013-04-03 04:01:00,
2013-04-03 00:02:00,32.8,17.1,29.87,South,172,4.0,14.0,52,0.00,,---,0.00,VWS V14.01,2013-04-03 04:02:00,
2013-04-03 00:05:00,32.9,16.8,29.87,NW,320,15.0,15.0,51,0.00,,---,0.00,VWS V14.01,2013-04-03 04:05:00,
2013-04-03 00:07:00,32.9,16.8,29.87,West,277,1.0,21.0,51,0.00,,---,0.00,VWS V14.01,2013-04-03 04:07:00,
2013-04-03 00:10:00,33.0,16.9,29.87,SSW,203,3.0,21.0,51,0.00,,---,0.00,VWS V14.01,2013-04-03 04:10:00,
2013-04-03 00:13:00,32.9,16.8,29.87,South,175,6.0,15.0,51,0.00,,---,0.00,VWS V14.01,2013-04-03 04:13:00,
2013-04-03 00:15:00,32.9,16.8,29.87,WSW,240,10.0,15.0,51,0.00,,---,0.00,VWS V14.01,2013-04-03 04:15:00,
2013-04-03 00:18:00,32.9,17.2,29.87,West,279,6.0,21.0,52,0.00,,---,0.00,VWS V14.01,2013-04-03 04:18:00,
2013-04-03 00:20:00,32.9,17.2,29.87,West,279,6.0,21.0,52,0.00,,---,0.00,VWS V14.01,2013-04-03 04:20:00,
2013-04-03 00:23:00,32.8,17.6,29.86,WNW,288,2.0,16.0,53,0.00,,---,0.00,VWS V14.01,2013-04-03 04:23:00,
2013-04-03 00:25:00,32.8,17.6,29.86,WNW,288,2.0,16.0,53,0.00,,---,0.00,VWS V14.01,2013-04-03 04:25:00,
2013-04-03 00:28:00,32.7,17.9,29.87,SSW,204,6.0,10.0,54,0.00,,---,0.00,VWS V14.01,2013-04-03 04:28:00,
2013-04-03 00:30:00,32.7,17.9,29.87,SSW,204,6.0,10.0,54,0.00,,---,0.00,VWS V14.01,2013-04-03 04:30:00,
2013-04-03 00:33:00,32.5,18.1,29.87,West,275,10.0,11.0,55,0.00,,---,0.00,VWS V14.01,2013-04-03 04:33:00,
2013-04-03 00:35:00,32.5,18.1,29.87,West,275,10.0,11.0,55,0.00,,---,0.00,VWS V14.01,2013-04-03 04:35:00,
2013-04-03 00:38:00,32.3,18.4,29.87,WSW,250,5.0,16.0,56,0.00,,---,0.00,VWS V14.01,2013-04-03 04:38:00,
2013-04-03 00:40:00,32.3,18.4,29.87,WSW,250,5.0,16.0,56,0.00,,---,0.00,VWS V14.01,2013-04-03 04:40:00,
2013-04-03 00:43:00,32.2,18.3,29.87,WNW,292,4.0,19.0,56,0.00,,---,0.00,VWS V14.01,2013-04-03 04:43:00,
2013-04-03 00:45:00,32.2,18.3,29.87,WNW,292,4.0,19.0,56,0.00,,---,0.00,VWS V14.01,2013-04-03 04:45:00,
2013-04-03 00:48:00,32.2,18.3,29.87,SW,223,1.0,15.0,56,0.00,,---,0.00,VWS V14.01,2013-04-03 04:48:00,
2013-04-03 00:50:00,32.2,18.3,29.87,SW,223,1.0,15.0,56,0.00,,---,0.00,VWS V14.01,2013-04-03 04:50:00,
2013-04-03 00:53:00,32.2,17.9,29.87,SW,215,3.0,20.0,55,0.00,,---,0.00,VWS V14.01,2013-04-03 04:53:00,
2013-04-03 00:55:00,32.2,17.9,29.87,SW,215,3.0,20.0,55,0.00,,---,0.00,VWS V14.01,2013-04-03 04:55:00,
2013-04-03 00:58:00,32.2,17.4,29.87,SW,227,3.0,15.0,54,0.00,,---,0.00,VWS V14.01,2013-04-03 04:58:00,
2013-04-03 01:00:00,32.2,17.4,29.87,SW,227,3.0,15.0,54,0.00,,---,0.00,VWS V14.01,2013-04-03 05:00:00,
2013-04-03 01:03:00,32.2,17.4,29.87,West,279,4.0,18.0,54,0.00,,---,0.00,VWS V14.01,2013-04-03 05:03:00,
2013-04-03 01:05:00,32.2,17.4,29.87,West,279,4.0,18.0,54,0.00,,---,0.00,VWS V14.01,2013-04-03 05:05:00,
2013-04-03 01:08:00,32.2,17.4,29.87,NW,306,5.0,21.0,54,0.00,,---,0.00,VWS V14.01,2013-04-03 05:08:00,
2013-04-03 01:10:00,32.2,17.4,29.87,NW,306,5.0,21.0,54,0.00,,---,0.00,VWS V14.01,2013-04-03 05:10:00,
2013-04-03 01:13:00,32.2,17.4,29.87,SW,221,3.0,20.0,54,0.00,,---,0.00,VWS V14.01,2013-04-03 05:13:00,
2013-04-03 01:15:00,32.2,17.4,29.87,SW,221,3.0,20.0,54,0.00,,---,0.00,VWS V14.01,2013-04-03 05:15:00,
2013-04-03 01:18:00,32.2,17.4,29.87,WSW,243,1.0,14.0,54,0.00,,---,0.00,VWS V14.01,2013-04-03 05:18:00,
2013-04-03 01:20:00,32.2,17.4,29.87,WSW,243,1.0,14.0,54,0.00,,---,0.00,VWS V14.01,2013-04-03 05:20:00,
2013-04-03 01:23:00,32.1,17.3,29.87,West,271,9.0,19.0,54,0.00,,---,0.00,VWS V14.01,2013-04-03 05:23:00,
2013-04-03 01:25:00,32.1,17.3,29.87,West,271,9.0,19.0,54,0.00,,---,0.00,VWS V14.01,2013-04-03 05:25:00,
2013-04-03 01:28:00,32.1,17.3,29.87,SW,222,1.0,13.0,54,0.00,,---,0.00,VWS V14.01,2013-04-03 05:28:00,
2013-04-03 01:30:00,32.1,17.3,29.87,SW,222,1.0,13.0,54,0.00,,---,0.00,VWS V14.01,2013-04-03 05:30:00,
2013-04-03 01:33:00,32.0,17.7,29.87,West,272,7.0,13.0,55,0.00,,---,0.00,VWS V14.01,2013-04-03 05:33:00,
2013-04-03 01:35:00,32.0,17.7,29.87,West,272,7.0,13.0,55,0.00,,---,0.00,VWS V14.01,2013-04-03 05:35:00,
2013-04-03 01:38:00,31.9,17.6,29.88,WSW,255,1.0,14.0,55,0.00,,---,0.00,VWS V14.01,2013-04-03 05:38:00,
2013-04-03 01:40:00,31.9,17.6,29.88,WSW,255,1.0,14.0,55,0.00,,---,0.00,VWS V14.01,2013-04-03 05:40:00,
2013-04-03 01:43:00,31.8,17.5,29.88,WSW,242,5.0,11.0,55,0.00,,---,0.00,VWS V14.01,2013-04-03 05:43:00,
2013-04-03 01:45:00,31.8,17.5,29.88,WSW,242,5.0,11.0,55,0.00,,---,0.00,VWS V14.01,2013-04-03 05:45:00,
2013-04-03 01:48:00,31.9,17.6,29.88,SW,219,5.0,10.0,55,0.00,,---,0.00,VWS V14.01,2013-04-03 05:48:00,
2013-04-03 01:50:00,31.9,17.6,29.88,SW,219,5.0,10.0,55,0.00,,---,0.00,VWS V14.01,2013-04-03 05:50:00,
2013-04-03 01:53:00,31.8,17.5,29.88,WNW,296,5.0,12.0,55,0.00,,---,0.00,VWS V14.01,2013-04-03 05:53:00,
2013-04-03 01:55:00,31.8,17.5,29.88,WNW,296,5.0,12.0,55,0.00,,---,0.00,VWS V14.01,2013-04-03 05:55:00,
2013-04-03 01:58:00,31.8,17.1,29.88,West,280,4.0,6.0,54,0.00,,---,0.00,VWS V14.01,2013-04-03 05:58:00,
2013-04-03 02:00:00,31.8,17.1,29.88,West,280,4.0,6.0,54,0.00,,---,0.00,VWS V14.01,2013-04-03 06:00:00,
2013-04-03 02:03:00,31.8,17.1,29.87,West,262,6.0,12.0,54,0.00,,---,0.00,VWS V14.01,2013-04-03 06:03:00,
2013-04-03 02:05:00,31.8,17.1,29.87,West,262,6.0,12.0,54,0.00,,---,0.00,VWS V14.01,2013-04-03 06:05:00,
2013-04-03 02:08:00,31.7,17.0,29.88,West,272,10.0,18.0,54,0.00,,---,0.00,VWS V14.01,2013-04-03 06:08:00,
2013-04-03 02:10:00,31.7,17.0,29.88,WSW,242,10.0,17.0,54,0.00,,---,0.00,VWS V14.01,2013-04-03 06:10:00,
2013-04-03 02:13:00,31.7,17.4,29.88,West,271,6.0,6.0,55,0.00,,---,0.00,VWS V14.01,2013-04-03 06:13:00,
2013-04-03 02:15:00,31.7,17.4,29.88,SSW,195,0.0,21.0,55,0.00,,---,0.00,VWS V14.01,2013-04-03 06:15:00,
2013-04-03 02:19:00,31.6,17.3,29.88,SW,216,1.0,7.0,55,0.00,,---,0.00,VWS V14.01,2013-04-03 06:19:00,
2013-04-03 02:20:00,31.7,17.8,29.88,NW,311,7.0,11.0,56,0.00,,---,0.00,VWS V14.01,2013-04-03 06:20:00,
2013-04-03 02:24:00,31.6,17.3,29.88,SSW,196,2.0,9.0,55,0.00,,---,0.00,VWS V14.01,2013-04-03 06:24:00,
2013-04-03 02:25:00,31.6,17.3,29.88,WSW,238,2.0,9.0,55,0.00,,---,0.00,VWS V14.01,2013-04-03 06:25:00,
2013-04-03 02:29:00,31.6,17.3,29.88,SW,223,2.0,4.0,55,0.00,,---,0.00,VWS V14.01,2013-04-03 06:29:00,
2013-04-03 02:30:00,31.6,17.3,29.88,West,268,0.0,11.0,55,0.00,,---,0.00,VWS V14.01,2013-04-03 06:30:00,
2013-04-03 02:35:00,31.6,17.3,29.88,WSW,240,3.0,10.0,55,0.00,,---,0.00,VWS V14.01,2013-04-03 06:35:00,
2013-04-03 02:40:00,31.5,17.2,29.88,WSW,242,2.0,7.0,55,0.00,,---,0.00,VWS V14.01,2013-04-03 06:40:00,
2013-04-03 02:45:00,31.5,17.2,29.88,North,349,3.0,10.0,55,0.00,,---,0.00,VWS V14.01,2013-04-03 06:45:00,
2013-04-03 02:50:00,31.5,17.2,29.88,SSW,196,2.0,12.0,55,0.00,,---,0.00,VWS V14.01,2013-04-03 06:50:00,
2013-04-03 02:55:00,31.4,17.1,29.88,WNW,290,5.0,13.0,55,0.00,,---,0.00,VWS V14.01,2013-04-03 06:55:00,
2013-04-03 03:00:00,31.3,17.0,29.88,SW,223,5.0,13.0,55,0.00,,---,0.00,VWS V14.01,2013-04-03 07:00:00,
2013-04-03 03:05:00,31.1,16.8,29.88,West,262,4.0,9.0,55,0.00,,---,0.00,VWS V14.01,2013-04-03 07:05:00,
2013-04-03 03:10:00,31.1,16.8,29.88,SW,222,0.0,13.0,55,0.00,,---,0.00,VWS V14.01,2013-04-03 07:10:00,
2013-04-03 03:11:00,31.0,16.7,29.88,West,279,5.0,9.0,55,0.00,,---,0.00,VWS V14.01,2013-04-03 07:11:00,
2013-04-03 03:15:00,31.0,16.7,29.88,WNW,286,10.0,10.0,55,0.00,,---,0.00,VWS V14.01,2013-04-03 07:15:00,
2013-04-03 03:16:00,31.0,16.3,29.88,West,277,1.0,11.0,54,0.00,,---,0.00,VWS V14.01,2013-04-03 07:16:00,
2013-04-03 03:20:00,31.0,16.7,29.88,West,262,4.0,11.0,55,0.00,,---,0.00,VWS V14.01,2013-04-03 07:20:00,
2013-04-03 03:22:00,31.0,16.3,29.88,West,281,5.0,11.0,54,0.00,,---,0.00,VWS V14.01,2013-04-03 07:22:00,
2013-04-03 03:25:00,31.0,16.7,29.88,West,277,5.0,11.0,55,0.00,,---,0.00,VWS V14.01,2013-04-03 07:25:00,
2013-04-03 03:27:00,30.9,16.6,29.88,WSW,243,2.0,5.0,55,0.00,,---,0.00,VWS V14.01,2013-04-03 07:27:00,
2013-04-03 03:30:00,30.9,16.6,29.88,WSW,252,4.0,7.0,55,0.00,,---,0.00,VWS V14.01,2013-04-03 07:30:00,
2013-04-03 03:32:00,30.9,16.6,29.88,WSW,244,5.0,17.0,55,0.00,,---,0.00,VWS V14.01,2013-04-03 07:32:00,
2013-04-03 03:35:00,30.9,17.1,29.88,WSW,256,0.0,17.0,56,0.00,,---,0.00,VWS V14.01,2013-04-03 07:35:00,
2013-04-03 03:37:00,30.9,16.6,29.88,WSW,257,2.0,13.0,55,0.00,,---,0.00,VWS V14.01,2013-04-03 07:37:00,
2013-04-03 03:40:00,30.9,16.6,29.88,WNW,293,0.0,13.0,55,0.00,,---,0.00,VWS V14.01,2013-04-03 07:40:00,
2013-04-03 03:43:00,30.9,17.1,29.88,SW,234,0.0,9.0,56,0.00,,---,0.00,VWS V14.01,2013-04-03 07:43:00,
2013-04-03 03:45:00,30.9,17.1,29.88,WNW,292,3.0,9.0,56,0.00,,---,0.00,VWS V14.01,2013-04-03 07:45:00,
2013-04-03 03:48:00,30.9,17.5,29.88,WSW,240,2.0,6.0,57,0.00,,---,0.00,VWS V14.01,2013-04-03 07:48:00,
2013-04-03 03:50:00,30.9,17.5,29.88,WSW,240,2.0,6.0,57,0.00,,---,0.00,VWS V14.01,2013-04-03 07:50:00,
2013-04-03 03:53:00,30.8,17.0,29.88,West,261,4.0,6.0,56,0.00,,---,0.00,VWS V14.01,2013-04-03 07:53:00,
2013-04-03 03:55:00,30.8,17.0,29.88,West,261,4.0,6.0,56,0.00,,---,0.00,VWS V14.01,2013-04-03 07:55:00,
2013-04-03 03:58:00,30.8,17.4,29.88,SW,222,4.0,6.0,57,0.00,,---,0.00,VWS V14.01,2013-04-03 07:58:00,
2013-04-03 04:00:00,30.8,17.4,29.88,SW,222,4.0,6.0,57,0.00,,---,0.00,VWS V14.01,2013-04-03 08:00:00,
2013-04-03 04:03:00,30.7,17.7,29.88,West,265,2.0,9.0,58,0.00,,---,0.00,VWS V14.01,2013-04-03 08:03:00,
2013-04-03 04:05:00,30.7,17.7,29.88,West,265,2.0,9.0,58,0.00,,---,0.00,VWS V14.01,2013-04-03 08:05:00,
2013-04-03 04:08:00,30.6,17.2,29.88,West,273,7.0,7.0,57,0.00,,---,0.00,VWS V14.01,2013-04-03 08:08:00,
2013-04-03 04:10:00,30.6,17.2,29.88,North,9,1.0,13.0,57,0.00,,---,0.00,VWS V14.01,2013-04-03 08:10:00,
2013-04-03 04:13:00,30.6,17.2,29.88,WSW,244,1.0,4.0,57,0.00,,---,0.00,VWS V14.01,2013-04-03 08:13:00,
2013-04-03 04:15:00,30.6,17.2,29.88,WSW,245,0.0,12.0,57,0.00,,---,0.00,VWS V14.01,2013-04-03 08:15:00,
2013-04-03 04:19:00,30.6,17.2,29.88,South,180,0.0,5.0,57,0.00,,---,0.00,VWS V14.01,2013-04-03 08:19:00,
2013-04-03 04:20:00,30.6,17.6,29.88,West,280,3.0,10.0,58,0.00,,---,0.00,VWS V14.01,2013-04-03 08:20:00,
2013-04-03 04:24:00,30.5,17.5,29.88,SW,224,10.0,11.0,58,0.00,,---,0.00,VWS V14.01,2013-04-03 08:24:00,
2013-04-03 04:25:00,30.5,17.1,29.88,WSW,246,9.0,11.0,57,0.00,,---,0.00,VWS V14.01,2013-04-03 08:25:00,
2013-04-03 04:29:00,30.5,17.1,29.89,WNW,293,10.0,14.0,57,0.00,,---,0.00,VWS V14.01,2013-04-03 08:29:00,
2013-04-03 04:30:00,30.5,17.1,29.88,NNW,338,2.0,11.0,57,0.00,,---,0.00,VWS V14.01,2013-04-03 08:30:00,
2013-04-03 04:34:00,30.5,17.1,29.89,WSW,244,1.0,9.0,57,0.00,,---,0.00,VWS V14.01,2013-04-03 08:34:00,
2013-04-03 04:35:00,30.5,16.7,29.89,NW,304,5.0,15.0,56,0.00,,---,0.00,VWS V14.01,2013-04-03 08:35:00,
2013-04-03 04:40:00,30.5,16.7,29.89,SW,225,5.0,5.0,56,0.00,,---,0.00,VWS V14.01,2013-04-03 08:40:00,
2013-04-03 04:45:00,30.4,17.0,29.88,West,261,2.0,5.0,57,0.00,,---,0.00,VWS V14.01,2013-04-03 08:45:00,
2013-04-03 04:50:00,30.2,16.8,29.89,West,272,6.0,15.0,57,0.00,,---,0.00,VWS V14.01,2013-04-03 08:50:00,
2013-04-03 04:55:00,30.2,16.8,29.89,WSW,237,7.0,12.0,57,0.00,,---,0.00,VWS V14.01,2013-04-03 08:55:00,
2013-04-03 05:00:00,30.2,16.4,29.89,West,267,0.0,9.0,56,0.00,,---,0.00,VWS V14.01,2013-04-03 09:00:00,
2013-04-03 05:05:00,30.2,16.4,29.89,West,259,3.0,14.0,56,0.00,,---,0.00,VWS V14.01,2013-04-03 09:05:00,
2013-04-03 05:06:00,30.2,16.4,29.89,South,189,4.0,12.0,56,0.00,,---,0.00,VWS V14.01,2013-04-03 09:06:00,
2013-04-03 05:10:00,30.2,16.4,29.89,West,259,1.0,12.0,56,0.00,,---,0.00,VWS V14.01,2013-04-03 09:10:00,
2013-04-03 05:11:00,30.2,16.4,29.89,WNW,292,5.0,6.0,56,0.00,,---,0.00,VWS V14.01,2013-04-03 09:11:00,
2013-04-03 05:15:00,30.1,16.3,29.89,SW,215,1.0,6.0,56,0.00,,---,0.00,VWS V14.01,2013-04-03 09:15:00,
2013-04-03 05:16:00,30.1,16.3,29.89,SW,229,1.0,5.0,56,0.00,,---,0.00,VWS V14.01,2013-04-03 09:16:00,
2013-04-03 05:20:00,30.1,16.7,29.89,SW,236,2.0,5.0,57,0.00,,---,0.00,VWS V14.01,2013-04-03 09:20:00,
2013-04-03 05:21:00,30.0,16.6,29.90,SW,228,5.0,6.0,57,0.00,,---,0.00,VWS V14.01,2013-04-03 09:21:00,
2013-04-03 05:25:00,29.9,16.5,29.90,WSW,255,2.0,6.0,57,0.00,,---,0.00,VWS V14.01,2013-04-03 09:25:00,
2013-04-03 05:26:00,29.8,16.4,29.90,WSW,238,0.0,9.0,57,0.00,,---,0.00,VWS V14.01,2013-04-03 09:26:00,
2013-04-03 05:30:00,29.8,16.4,29.90,West,279,3.0,9.0,57,0.00,,---,0.00,VWS V14.01,2013-04-03 09:30:00,
2013-04-03 05:32:00,29.7,16.8,29.90,West,268,7.0,10.0,58,0.00,,---,0.00,VWS V14.01,2013-04-03 09:32:00,
2013-04-03 05:35:00,29.7,16.8,29.90,SW,229,4.0,10.0,58,0.00,,---,0.00,VWS V14.01,2013-04-03 09:35:00,
2013-04-03 05:37:00,29.5,16.6,29.90,West,273,1.0,6.0,58,0.00,,---,0.00,VWS V14.01,2013-04-03 09:37:00,
2013-04-03 05:40:00,29.5,16.6,29.90,West,274,9.0,9.0,58,0.00,,---,0.00,VWS V14.01,2013-04-03 09:40:00,
2013-04-03 05:42:00,29.4,16.5,29.90,West,271,9.0,9.0,58,0.00,,---,0.00,VWS V14.01,2013-04-03 09:42:00,
2013-04-03 05:45:00,29.4,16.5,29.90,West,261,3.0,9.0,58,0.00,,---,0.00,VWS V14.01,2013-04-03 09:45:00,
2013-04-03 05:47:00,29.4,16.5,29.90,WSW,257,7.0,7.0,58,0.00,,---,0.00,VWS V14.01,2013-04-03 09:47:00,
2013-04-03 05:50:00,29.4,16.5,29.90,West,268,1.0,7.0,58,0.00,,---,0.00,VWS V14.01,2013-04-03 09:50:00,
2013-04-03 05:53:00,29.4,16.1,29.91,WSW,247,3.0,11.0,57,0.00,,---,0.00,VWS V14.01,2013-04-03 09:53:00,
2013-04-03 05:55:00,29.4,16.1,29.91,WSW,246,3.0,11.0,57,0.00,,---,0.00,VWS V14.01,2013-04-03 09:55:00,
2013-04-03 05:58:00,29.4,16.1,29.91,WSW,248,4.0,10.0,57,0.00,,---,0.00,VWS V14.01,2013-04-03 09:58:00,
2013-04-03 06:00:00,29.4,16.1,29.91,WSW,257,4.0,10.0,57,0.00,,---,0.00,VWS V14.01,2013-04-03 10:00:00,
2013-04-03 06:03:00,29.5,16.2,29.91,WSW,244,1.0,7.0,57,0.00,,---,0.00,VWS V14.01,2013-04-03 10:03:00,
2013-04-03 06:05:00,29.5,16.2,29.91,WSW,244,1.0,7.0,57,0.00,,---,0.00,VWS V14.01,2013-04-03 10:05:00,
2013-04-03 06:08:00,29.5,16.2,29.91,WSW,256,2.0,11.0,57,0.00,,---,0.00,VWS V14.01,2013-04-03 10:08:00,
2013-04-03 06:10:00,29.5,16.2,29.91,WSW,256,2.0,11.0,57,0.00,,---,0.00,VWS V14.01,2013-04-03 10:10:00,
2013-04-03 06:13:00,29.5,16.2,29.91,SW,223,4.0,10.0,57,0.00,,---,0.00,VWS V14.01,2013-04-03 10:13:00,
2013-04-03 06:15:00,29.5,16.2,29.91,SW,223,4.0,10.0,57,0.00,,---,0.00,VWS V14.01,2013-04-03 10:15:00,
2013-04-03 06:18:00,29.4,16.5,29.91,SW,221,6.0,7.0,58,0.00,,---,0.00,VWS V14.01,2013-04-03 10:18:00,
2013-04-03 06:20:00,29.4,16.5,29.91,SW,221,6.0,7.0,58,0.00,,---,0.00,VWS V14.01,2013-04-03 10:20:00,
2013-04-03 06:23:00,29.4,16.1,29.91,WSW,244,2.0,12.0,57,0.00,,---,0.00,VWS V14.01,2013-04-03 10:23:00,
2013-04-03 06:25:00,29.4,16.1,29.91,WSW,244,2.0,12.0,57,0.00,,---,0.00,VWS V14.01,2013-04-03 10:25:00,
2013-04-03 06:28:00,29.4,16.1,29.92,WSW,257,10.0,11.0,57,0.00,,---,0.00,VWS V14.01,2013-04-03 10:28:00,
2013-04-03 06:30:00,29.4,16.1,29.92,WSW,257,10.0,11.0,57,0.00,,---,0.00,VWS V14.01,2013-04-03 10:30:00,
2013-04-03 06:33:00,29.3,16.0,29.92,SW,228,2.0,10.0,57,0.00,,---,0.00,VWS V14.01,2013-04-03 10:33:00,
2013-04-03 06:35:00,29.3,16.0,29.92,SW,228,2.0,10.0,57,0.00,,---,0.00,VWS V14.01,2013-04-03 10:35:00,
2013-04-03 06:38:00,29.3,16.4,29.92,SW,231,4.0,11.0,58,0.00,,---,0.00,VWS V14.01,2013-04-03 10:38:00,
2013-04-03 06:40:00,29.3,16.4,29.92,SW,231,4.0,11.0,58,0.00,,---,0.00,VWS V14.01,2013-04-03 10:40:00,
2013-04-03 06:43:00,29.4,16.1,29.92,West,260,2.0,9.0,57,0.00,,---,0.00,VWS V14.01,2013-04-03 10:43:00,
2013-04-03 06:45:00,29.4,16.1,29.92,West,260,2.0,9.0,57,0.00,,---,0.00,VWS V14.01,2013-04-03 10:45:00,
2013-04-03 06:48:00,29.4,16.1,29.92,West,259,3.0,9.0,57,0.00,,---,0.00,VWS V14.01,2013-04-03 10:48:00,
2013-04-03 06:50:00,29.4,16.1,29.92,West,259,3.0,9.0,57,0.00,,---,0.00,VWS V14.01,2013-04-03 10:50:00,
2013-04-03 06:53:00,29.6,16.2,29.92,SW,230,2.0,11.0,57,0.00,,---,0.00,VWS V14.01,2013-04-03 10:53:00,
2013-04-03 06:55:00,29.6,16.2,29.92,SW,230,2.0,11.0,57,0.00,,---,0.00,VWS V14.01,2013-04-03 10:55:00,
2013-04-03 06:58:00,29.6,15.8,29.92,WSW,253,12.0,12.0,56,0.00,,---,0.00,VWS V14.01,2013-04-03 10:58:00,
2013-04-03 07:00:00,29.6,15.9,29.92,WSW,253,12.0,12.0,56,0.00,,---,0.00,VWS V14.01,2013-04-03 11:00:00,
2013-04-03 07:03:00,29.7,15.9,29.93,WSW,242,2.0,13.0,56,0.00,,---,0.00,VWS V14.01,2013-04-03 11:03:00,
2013-04-03 07:05:00,29.7,15.9,29.93,WSW,242,2.0,13.0,56,0.00,,---,0.00,VWS V14.01,2013-04-03 11:05:00,
2013-04-03 07:08:00,29.8,16.0,29.93,West,262,3.0,3.0,56,0.00,,---,0.00,VWS V14.01,2013-04-03 11:08:00,
2013-04-03 07:10:00,29.8,16.0,29.93,West,262,3.0,3.0,56,0.00,,---,0.00,VWS V14.01,2013-04-03 11:10:00,
2013-04-03 07:13:00,29.9,16.9,29.93,West,262,3.0,3.0,58,0.00,,---,0.00,VWS V14.01,2013-04-03 11:13:00,
2013-04-03 07:15:00,29.9,16.9,29.93,West,262,3.0,3.0,58,0.00,,---,0.00,VWS V14.01,2013-04-03 11:15:00,
2013-04-03 07:18:00,30.0,16.2,29.93,West,262,3.0,3.0,56,0.00,,---,0.00,VWS V14.01,2013-04-03 11:18:00,
2013-04-03 07:20:00,30.0,16.2,29.93,West,262,3.0,3.0,56,0.00,,---,0.00,VWS V14.01,2013-04-03 11:20:00,
2013-04-03 07:23:00,30.1,16.3,29.93,West,262,3.0,3.0,56,0.00,,---,0.00,VWS V14.01,2013-04-03 11:23:00,
2013-04-03 07:25:00,30.1,16.3,29.93,West,262,3.0,3.0,56,0.00,,---,0.00,VWS V14.01,2013-04-03 11:25:00,
2013-04-03 07:28:00,30.2,16.0,29.93,West,262,3.0,3.0,55,0.00,,---,0.00,VWS V14.01,2013-04-03 11:28:00,
2013-04-03 07:30:00,30.2,16.0,29.93,West,262,3.0,3.0,55,0.00,,---,0.00,VWS V14.01,2013-04-03 11:30:00,
2013-04-03 07:33:00,30.3,16.1,29.93,West,266,9.0,17.0,55,0.00,,---,0.00,VWS V14.01,2013-04-03 11:33:00,
2013-04-03 07:35:00,30.3,16.1,29.93,West,266,9.0,17.0,55,0.00,,---,0.00,VWS V14.01,2013-04-03 11:35:00,
2013-04-03 07:38:00,30.5,15.9,29.94,SW,223,10.0,13.0,54,0.00,,---,0.00,VWS V14.01,2013-04-03 11:38:00,
2013-04-03 07:40:00,30.5,15.9,29.94,SW,223,10.0,13.0,54,0.00,,---,0.00,VWS V14.01,2013-04-03 11:40:00,
2013-04-03 07:43:00,30.6,15.9,29.94,West,269,3.0,14.0,54,0.00,,---,0.00,VWS V14.01,2013-04-03 11:43:00,
2013-04-03 07:45:00,30.6,15.9,29.94,West,269,3.0,14.0,54,0.00,,---,0.00,VWS V14.01,2013-04-03 11:45:00,
2013-04-03 07:48:00,30.7,16.5,29.94,SSW,200,1.0,19.0,55,0.00,,---,0.00,VWS V14.01,2013-04-03 11:48:00,
2013-04-03 07:50:00,30.7,16.5,29.94,SSW,200,1.0,19.0,55,0.00,,---,0.00,VWS V14.01,2013-04-03 11:50:00,
2013-04-03 07:53:00,30.8,16.1,29.94,WSW,244,2.0,13.0,54,0.00,,---,0.00,VWS V14.01,2013-04-03 11:53:00,
2013-04-03 07:55:00,30.8,16.1,29.94,WSW,244,2.0,13.0,54,0.00,,---,0.00,VWS V14.01,2013-04-03 11:55:00,
2013-04-03 07:58:00,30.9,15.8,29.94,West,275,4.0,16.0,53,0.00,,---,0.00,VWS V14.01,2013-04-03 11:58:00,
2013-04-03 08:00:00,30.9,15.8,29.94,West,275,4.0,16.0,53,0.00,,---,0.00,VWS V14.01,2013-04-03 12:00:00,
2013-04-03 08:03:00,31.1,16.0,29.94,WSW,243,3.0,16.0,53,0.00,,---,0.00,VWS V14.01,2013-04-03 12:03:00,
2013-04-03 08:05:00,31.1,16.0,29.94,WSW,243,3.0,16.0,53,0.00,,---,0.00,VWS V14.01,2013-04-03 12:05:00,
2013-04-03 08:08:00,31.2,15.6,29.94,WSW,248,3.0,10.0,52,0.00,,---,0.00,VWS V14.01,2013-04-03 12:08:00,
2013-04-03 08:10:00,31.2,15.6,29.94,WSW,248,3.0,10.0,52,0.00,,---,0.00,VWS V14.01,2013-04-03 12:10:00,
2013-04-03 08:13:00,31.4,15.8,29.94,West,266,2.0,13.0,52,0.00,,---,0.00,VWS V14.01,2013-04-03 12:13:00,
2013-04-03 08:15:00,31.5,15.9,29.94,West,266,2.0,13.0,52,0.00,,---,0.00,VWS V14.01,2013-04-03 12:15:00,
2013-04-03 08:18:00,31.6,15.6,29.93,WSW,243,6.0,13.0,51,0.00,,---,0.00,VWS V14.01,2013-04-03 12:18:00,
2013-04-03 08:20:00,31.6,15.6,29.93,WSW,243,6.0,13.0,51,0.00,,---,0.00,VWS V14.01,2013-04-03 12:20:00,
2013-04-03 08:23:00,31.9,15.8,29.94,WSW,246,0.0,10.0,51,0.00,,---,0.00,VWS V14.01,2013-04-03 12:23:00,
2013-04-03 08:25:00,31.9,15.8,29.94,WSW,246,0.0,10.0,51,0.00,,---,0.00,VWS V14.01,2013-04-03 12:25:00,
2013-04-03 08:28:00,32.1,16.0,29.93,West,261,1.0,14.0,51,0.00,,---,0.00,VWS V14.01,2013-04-03 12:28:00,
2013-04-03 08:30:00,32.1,16.0,29.93,West,261,1.0,14.0,51,0.00,,---,0.00,VWS V14.01,2013-04-03 12:30:00,
2013-04-03 08:33:00,32.5,16.4,29.94,WNW,284,6.0,17.0,51,0.00,,---,0.00,VWS V14.01,2013-04-03 12:33:00,
2013-04-03 08:35:00,32.5,16.4,29.94,WNW,284,6.0,17.0,51,0.00,,---,0.00,VWS V14.01,2013-04-03 12:35:00,
2013-04-03 08:38:00,32.8,16.2,29.93,West,269,7.0,23.0,50,0.00,,---,0.00,VWS V14.01,2013-04-03 12:38:00,
2013-04-03 08:40:00,32.8,16.2,29.93,West,269,7.0,23.0,50,0.00,,---,0.00,VWS V14.01,2013-04-03 12:40:00,
2013-04-03 08:43:00,33.2,16.6,29.93,WNW,303,4.0,16.0,50,0.00,,---,0.00,VWS V14.01,2013-04-03 12:43:00,
2013-04-03 08:45:00,33.2,16.6,29.93,WNW,303,4.0,16.0,50,0.00,,---,0.00,VWS V14.01,2013-04-03 12:45:00,
2013-04-03 08:48:00,33.4,15.8,29.93,WSW,242,10.0,20.0,48,0.00,,---,0.00,VWS V14.01,2013-04-03 12:48:00,
2013-04-03 08:50:00,33.4,15.8,29.93,WSW,242,10.0,20.0,48,0.00,,---,0.00,VWS V14.01,2013-04-03 12:50:00,
2013-04-03 08:53:00,33.4,15.8,29.93,SSW,212,6.0,13.0,48,0.00,,---,0.00,VWS V14.01,2013-04-03 12:53:00,
2013-04-03 08:55:00,33.4,15.8,29.93,SSW,212,6.0,13.0,48,0.00,,---,0.00,VWS V14.01,2013-04-03 12:55:00,
2013-04-03 08:58:00,33.5,15.9,29.93,SSW,194,3.0,22.0,48,0.00,,---,0.00,VWS V14.01,2013-04-03 12:58:00,
2013-04-03 09:00:00,33.5,15.9,29.93,SSW,194,3.0,22.0,48,0.00,,---,0.00,VWS V14.01,2013-04-03 13:00:00,
2013-04-03 09:03:00,33.8,15.7,29.93,South,180,4.0,14.0,47,0.00,,---,0.00,VWS V14.01,2013-04-03 13:03:00,
2013-04-03 09:05:00,33.8,15.7,29.93,South,180,4.0,14.0,47,0.00,,---,0.00,VWS V14.01,2013-04-03 13:05:00,
2013-04-03 09:08:00,33.8,15.7,29.93,WSW,254,11.0,19.0,47,0.00,,---,0.00,VWS V14.01,2013-04-03 13:08:00,
2013-04-03 09:10:00,33.8,15.7,29.93,WSW,254,11.0,19.0,47,0.00,,---,0.00,VWS V14.01,2013-04-03 13:10:00,
2013-04-03 09:13:00,34.1,15.5,29.93,West,274,5.0,23.0,46,0.00,,---,0.00,VWS V14.01,2013-04-03 13:13:00,
2013-04-03 09:15:00,34.1,15.5,29.93,West,274,5.0,23.0,46,0.00,,---,0.00,VWS V14.01,2013-04-03 13:15:00,
2013-04-03 09:18:00,34.1,15.5,29.93,SW,233,15.0,19.0,46,0.00,,---,0.00,VWS V14.01,2013-04-03 13:18:00,
2013-04-03 09:20:00,34.1,15.5,29.93,SW,233,15.0,19.0,46,0.00,,---,0.00,VWS V14.01,2013-04-03 13:20:00,
2013-04-03 09:23:00,34.2,16.1,29.92,South,187,3.0,16.0,47,0.00,,---,0.00,VWS V14.01,2013-04-03 13:23:00,
2013-04-03 09:25:00,34.2,16.1,29.92,South,187,3.0,16.0,47,0.00,,---,0.00,VWS V14.01,2013-04-03 13:25:00,
2013-04-03 09:28:00,34.4,15.3,29.92,West,259,9.0,22.0,45,0.00,,---,0.00,VWS V14.01,2013-04-03 13:28:00,
2013-04-03 09:30:00,34.4,15.3,29.92,West,259,9.0,22.0,45,0.00,,---,0.00,VWS V14.01,2013-04-03 13:30:00,
2013-04-03 09:33:00,34.5,15.4,29.92,WNW,299,11.0,15.0,45,0.00,,---,0.00,VWS V14.01,2013-04-03 13:33:00,
2013-04-03 09:35:00,34.5,15.4,29.92,WNW,299,11.0,15.0,45,0.00,,---,0.00,VWS V14.01,2013-04-03 13:35:00,
2013-04-03 09:38:00,35.0,15.8,29.92,West,281,9.0,16.0,45,0.00,,---,0.00,VWS V14.01,2013-04-03 13:38:00,
2013-04-03 09:40:00,35.0,15.8,29.92,West,281,9.0,16.0,45,0.00,,---,0.00,VWS V14.01,2013-04-03 13:40:00,
2013-04-03 09:43:00,35.3,15.1,29.92,West,267,14.0,18.0,43,0.00,,---,0.00,VWS V14.01,2013-04-03 13:43:00,
2013-04-03 09:45:00,35.3,15.1,29.92,West,267,14.0,18.0,43,0.00,,---,0.00,VWS V14.01,2013-04-03 13:45:00,
2013-04-03 09:48:00,35.6,15.9,29.92,WSW,242,10.0,14.0,44,0.00,,---,0.00,VWS V14.01,2013-04-03 13:48:00,
2013-04-03 09:50:00,35.6,15.9,29.92,WSW,242,10.0,14.0,44,0.00,,---,0.00,VWS V14.01,2013-04-03 13:50:00,
2013-04-03 09:53:00,35.9,16.1,29.91,West,272,4.0,20.0,44,0.00,,---,0.00,VWS V14.01,2013-04-03 13:53:00,
2013-04-03 09:55:00,35.9,16.1,29.91,West,272,4.0,20.0,44,0.00,,---,0.00,VWS V14.01,2013-04-03 13:55:00,
2013-04-03 09:58:00,36.4,16.0,29.91,NW,319,11.0,16.0,43,0.00,,---,0.00,VWS V14.01,2013-04-03 13:58:00,
2013-04-03 10:00:00,36.4,16.0,29.91,NW,319,11.0,16.0,43,0.00,,---,0.00,VWS V14.01,2013-04-03 14:00:00,
2013-04-03 10:03:00,36.3,14.9,29.91,WSW,247,7.0,20.0,41,0.00,,---,0.00,VWS V14.01,2013-04-03 14:03:00,
2013-04-03 10:05:00,36.3,14.9,29.91,WSW,247,7.0,20.0,41,0.00,,---,0.00,VWS V14.01,2013-04-03 14:05:00,
2013-04-03 10:08:00,36.4,15.5,29.91,SW,227,10.0,24.0,42,0.00,,---,0.00,VWS V14.01,2013-04-03 14:08:00,
2013-04-03 10:10:00,36.4,15.5,29.91,SW,227,10.0,24.0,42,0.00,,---,0.00,VWS V14.01,2013-04-03 14:10:00,
2013-04-03 10:13:00,36.5,15.1,29.91,WSW,244,6.0,23.0,41,0.00,,---,0.00,VWS V14.01,2013-04-03 14:13:00,
2013-04-03 10:15:00,36.5,15.1,29.91,WSW,244,6.0,23.0,41,0.00,,---,0.00,VWS V14.01,2013-04-03 14:15:00,
2013-04-03 10:18:00,36.9,16.5,29.90,West,279,2.0,15.0,43,0.00,,---,0.00,VWS V14.01,2013-04-03 14:18:00,
2013-04-03 10:20:00,36.9,16.5,29.90,West,279,2.0,15.0,43,0.00,,---,0.00,VWS V14.01,2013-04-03 14:20:00,
2013-04-03 10:23:00,37.3,15.2,29.91,SW,228,3.0,14.0,40,0.00,,---,0.00,VWS V14.01,2013-04-03 14:23:00,
2013-04-03 10:25:00,37.3,15.2,29.91,SW,228,3.0,14.0,40,0.00,,---,0.00,VWS V14.01,2013-04-03 14:25:00,
2013-04-03 10:28:00,37.8,15.7,29.91,North,5,4.0,18.0,40,0.00,,---,0.00,VWS V14.01,2013-04-03 14:28:00,
2013-04-03 10:30:00,37.8,15.7,29.91,North,5,4.0,18.0,40,0.00,,---,0.00,VWS V14.01,2013-04-03 14:30:00,
2013-04-03 10:33:00,38.0,15.8,29.91,West,263,7.0,16.0,40,0.00,,---,0.00,VWS V14.01,2013-04-03 14:33:00,
2013-04-03 10:35:00,38.0,15.8,29.91,West,263,7.0,16.0,40,0.00,,---,0.00,VWS V14.01,2013-04-03 14:35:00,
2013-04-03 10:38:00,38.3,14.3,29.90,SW,222,3.0,17.0,37,0.00,,---,0.00,VWS V14.01,2013-04-03 14:38:00,
2013-04-03 10:40:00,38.3,14.3,29.90,SW,222,3.0,17.0,37,0.00,,---,0.00,VWS V14.01,2013-04-03 14:40:00,
2013-04-03 10:43:00,38.4,15.6,29.91,South,190,5.0,17.0,39,0.00,,---,0.00,VWS V14.01,2013-04-03 14:43:00,
2013-04-03 10:45:00,38.4,15.6,29.91,South,190,5.0,17.0,39,0.00,,---,0.00,VWS V14.01,2013-04-03 14:45:00,
2013-04-03 10:48:00,38.4,16.2,29.91,WSW,249,11.0,19.0,40,0.00,,---,0.00,VWS V14.01,2013-04-03 14:48:00,
2013-04-03 10:50:00,38.4,16.2,29.91,WSW,249,11.0,19.0,40,0.00,,---,0.00,VWS V14.01,2013-04-03 14:50:00,
2013-04-03 10:53:00,39.1,16.8,29.91,West,265,11.0,22.0,40,0.00,,---,0.00,VWS V14.01,2013-04-03 14:53:00,
2013-04-03 10:55:00,39.1,16.8,29.91,West,265,11.0,22.0,40,0.00,,---,0.00,VWS V14.01,2013-04-03 14:55:00,
2013-04-03 10:58:00,39.4,15.3,29.91,SSW,196,10.0,21.0,37,0.00,,---,0.00,VWS V14.01,2013-04-03 14:58:00,
2013-04-03 11:00:00,39.4,15.3,29.91,SSW,196,10.0,21.0,37,0.00,,---,0.00,VWS V14.01,2013-04-03 15:00:00,
2013-04-03 11:03:00,39.2,15.1,29.91,West,281,16.0,17.0,37,0.00,,---,0.00,VWS V14.01,2013-04-03 15:03:00,
2013-04-03 11:05:00,39.2,15.1,29.91,West,281,16.0,17.0,37,0.00,,---,0.00,VWS V14.01,2013-04-03 15:05:00,
2013-04-03 11:08:00,39.9,15.1,29.91,WSW,255,6.0,17.0,36,0.00,,---,0.00,VWS V14.01,2013-04-03 15:08:00,
2013-04-03 11:10:00,39.9,15.1,29.91,WSW,255,6.0,17.0,36,0.00,,---,0.00,VWS V14.01,2013-04-03 15:10:00,
2013-04-03 11:13:00,39.9,14.5,29.91,North,350,9.0,15.0,35,0.00,,---,0.00,VWS V14.01,2013-04-03 15:13:00,
2013-04-03 11:15:00,39.9,14.5,29.91,North,350,9.0,15.0,35,0.00,,---,0.00,VWS V14.01,2013-04-03 15:15:00,
2013-04-03 11:18:00,40.2,14.8,29.91,NNW,332,14.0,17.0,35,0.00,,---,0.00,VWS V14.01,2013-04-03 15:18:00,
2013-04-03 11:20:00,40.2,14.8,29.91,NNW,332,14.0,17.0,35,0.00,,---,0.00,VWS V14.01,2013-04-03 15:20:00,
2013-04-03 11:23:00,39.4,14.0,29.91,West,265,7.0,18.0,35,0.00,,---,0.00,VWS V14.01,2013-04-03 15:23:00,
2013-04-03 11:25:00,39.4,14.0,29.91,West,265,7.0,18.0,35,0.00,,---,0.00,VWS V14.01,2013-04-03 15:25:00,
2013-04-03 11:28:00,39.8,13.1,29.91,WNW,296,1.0,16.0,33,0.00,,---,0.00,VWS V14.01,2013-04-03 15:28:00,
2013-04-03 11:30:00,39.8,13.1,29.91,WNW,296,1.0,16.0,33,0.00,,---,0.00,VWS V14.01,2013-04-03 15:30:00,
2013-04-03 11:33:00,40.3,15.5,29.91,WNW,285,12.0,18.0,36,0.00,,---,0.00,VWS V14.01,2013-04-03 15:33:00,
2013-04-03 11:35:00,40.3,15.5,29.91,WNW,285,12.0,18.0,36,0.00,,---,0.00,VWS V14.01,2013-04-03 15:35:00,
2013-04-03 11:38:00,41.1,14.9,29.91,SSW,197,7.0,12.0,34,0.00,,---,0.00,VWS V14.01,2013-04-03 15:38:00,
2013-04-03 11:40:00,41.1,14.9,29.91,SSW,197,7.0,12.0,34,0.00,,---,0.00,VWS V14.01,2013-04-03 15:40:00,
2013-04-03 11:43:00,41.2,13.6,29.90,NNW,338,15.0,21.0,32,0.00,,---,0.00,VWS V14.01,2013-04-03 15:43:00,
2013-04-03 11:45:00,41.2,13.6,29.90,NNW,338,15.0,21.0,32,0.00,,---,0.00,VWS V14.01,2013-04-03 15:45:00,
2013-04-03 11:48:00,40.9,14.7,29.90,WSW,244,6.0,17.0,34,0.00,,---,0.00,VWS V14.01,2013-04-03 15:48:00,
2013-04-03 11:50:00,40.9,14.7,29.90,WSW,244,6.0,17.0,34,0.00,,---,0.00,VWS V14.01,2013-04-03 15:50:00,
2013-04-03 11:53:00,41.2,16.3,29.90,South,182,3.0,18.0,36,0.00,,---,0.00,VWS V14.01,2013-04-03 15:53:00,
2013-04-03 11:55:00,41.2,16.3,29.90,South,182,3.0,18.0,36,0.00,,---,0.00,VWS V14.01,2013-04-03 15:55:00,
2013-04-03 11:58:00,41.5,14.6,29.90,West,279,22.0,22.0,33,0.00,,---,0.00,VWS V14.01,2013-04-03 15:58:00,
2013-04-03 12:00:00,41.5,14.6,29.90,West,279,22.0,22.0,33,0.00,,---,0.00,VWS V14.01,2013-04-03 16:00:00,
2013-04-03 12:03:00,41.3,15.7,29.90,WSW,255,13.0,22.0,35,0.00,,---,0.00,VWS V14.01,2013-04-03 16:03:00,
2013-04-03 12:05:00,41.3,15.7,29.90,WSW,255,13.0,22.0,35,0.00,,---,0.00,VWS V14.01,2013-04-03 16:05:00,
2013-04-03 12:08:00,41.1,14.9,29.90,NNW,331,3.0,16.0,34,0.00,,---,0.00,VWS V14.01,2013-04-03 16:08:00,
2013-04-03 12:10:00,41.1,14.9,29.90,NNW,331,3.0,16.0,34,0.00,,---,0.00,VWS V14.01,2013-04-03 16:10:00,
2013-04-03 12:13:00,41.4,14.5,29.90,WSW,239,9.0,19.0,33,0.00,,---,0.00,VWS V14.01,2013-04-03 16:13:00,
2013-04-03 12:15:00,41.4,14.5,29.90,WSW,239,9.0,19.0,33,0.00,,---,0.00,VWS V14.01,2013-04-03 16:15:00,
2013-04-03 12:18:00,42.5,15.4,29.90,SW,216,11.0,27.0,33,0.00,,---,0.00,VWS V14.01,2013-04-03 16:18:00,
2013-04-03 12:20:00,42.5,15.4,29.90,SW,216,11.0,27.0,33,0.00,,---,0.00,VWS V14.01,2013-04-03 16:20:00,
2013-04-03 12:23:00,42.1,15.1,29.90,SW,221,11.0,20.0,33,0.00,,---,0.00,VWS V14.01,2013-04-03 16:23:00,
2013-04-03 12:25:00,42.1,15.1,29.90,SW,221,11.0,20.0,33,0.00,,---,0.00,VWS V14.01,2013-04-03 16:25:00,
2013-04-03 12:28:00,42.1,15.1,29.90,WSW,242,2.0,25.0,33,0.00,,---,0.00,VWS V14.01,2013-04-03 16:28:00,
2013-04-03 12:30:00,42.1,15.1,29.90,WSW,242,2.0,25.0,33,0.00,,---,0.00,VWS V14.01,2013-04-03 16:30:00,
2013-04-03 12:33:00,42.5,16.1,29.90,West,281,9.0,20.0,34,0.00,,---,0.00,VWS V14.01,2013-04-03 16:33:00,
2013-04-03 12:35:00,42.5,16.1,29.90,West,281,9.0,20.0,34,0.00,,---,0.00,VWS V14.01,2013-04-03 16:35:00,
2013-04-03 12:38:00,42.9,15.1,29.89,WNW,288,4.0,21.0,32,0.00,,---,0.00,VWS V14.01,2013-04-03 16:38:00,
2013-04-03 12:40:00,42.9,15.1,29.89,WNW,288,4.0,21.0,32,0.00,,---,0.00,VWS V14.01,2013-04-03 16:40:00,
2013-04-03 12:43:00,43.5,16.3,29.89,West,275,7.0,20.0,33,0.00,,---,0.00,VWS V14.01,2013-04-03 16:43:00,
2013-04-03 12:45:00,43.5,16.3,29.89,West,275,7.0,20.0,33,0.00,,---,0.00,VWS V14.01,2013-04-03 16:45:00,
2013-04-03 12:48:00,43.4,15.5,29.89,North,355,3.0,5.0,32,0.00,,---,0.00,VWS V14.01,2013-04-03 16:48:00,
2013-04-03 12:50:00,43.4,15.5,29.90,NE,45,3.0,22.0,32,0.00,,---,0.00,VWS V14.01,2013-04-03 16:50:00,
2013-04-03 12:53:00,43.9,17.4,29.89,West,259,5.0,15.0,34,0.00,,---,0.00,VWS V14.01,2013-04-03 16:53:00,
2013-04-03 12:55:00,43.8,17.3,29.89,West,273,15.0,18.0,34,0.00,,---,0.00,VWS V14.01,2013-04-03 16:55:00,
2013-04-03 12:59:00,43.8,15.9,29.89,NW,304,11.0,14.0,32,0.00,,---,0.00,VWS V14.01,2013-04-03 16:59:00,
2013-04-03 13:00:00,43.8,15.1,29.89,WSW,248,3.0,16.0,31,0.00,,---,0.00,VWS V14.01,2013-04-03 17:00:00,
2013-04-03 13:04:00,43.3,14.7,29.89,SSW,203,3.0,7.0,31,0.00,,---,0.00,VWS V14.01,2013-04-03 17:04:00,
2013-04-03 13:05:00,43.3,16.8,29.89,NW,319,4.0,18.0,34,0.00,,---,0.00,VWS V14.01,2013-04-03 17:05:00,
2013-04-03 13:10:00,44.7,17.4,29.89,West,273,5.0,11.0,33,0.00,,---,0.00,VWS V14.01,2013-04-03 17:10:00,
2013-04-03 13:15:00,45.0,17.6,29.90,NW,309,6.0,14.0,33,0.00,,---,0.00,VWS V14.01,2013-04-03 17:15:00,
2013-04-03 13:20:00,45.0,16.2,29.89,WSW,244,5.0,15.0,31,0.00,,---,0.00,VWS V14.01,2013-04-03 17:20:00,
2013-04-03 13:25:00,44.9,14.6,29.89,WSW,253,7.0,16.0,29,0.00,,---,0.00,VWS V14.01,2013-04-03 17:25:00,
2013-04-03 13:30:00,44.9,16.1,29.89,WSW,243,3.0,19.0,31,0.00,,---,0.00,VWS V14.01,2013-04-03 17:30:00,
2013-04-03 13:31:00,45.7,18.3,29.89,WNW,286,3.0,12.0,33,0.00,,---,0.00,VWS V14.01,2013-04-03 17:31:00,
2013-04-03 13:35:00,45.6,16.0,29.89,WSW,255,24.0,31.0,30,0.00,,---,0.00,VWS V14.01,2013-04-03 17:35:00,
2013-04-03 13:36:00,45.9,17.7,29.89,West,273,3.0,24.0,32,0.00,,---,0.00,VWS V14.01,2013-04-03 17:36:00,
2013-04-03 13:40:00,45.5,14.3,29.89,SW,226,1.0,24.0,28,0.00,,---,0.00,VWS V14.01,2013-04-03 17:40:00,
2013-04-03 13:41:00,45.3,17.2,29.89,WSW,241,10.0,22.0,32,0.00,,---,0.00,VWS V14.01,2013-04-03 17:41:00,
2013-04-03 13:45:00,45.3,15.7,29.89,SSW,213,6.0,22.0,30,0.00,,---,0.00,VWS V14.01,2013-04-03 17:45:00,
2013-04-03 13:47:00,45.2,16.4,29.89,NNW,332,1.0,20.0,31,0.00,,---,0.00,VWS V14.01,2013-04-03 17:47:00,
2013-04-03 13:50:00,45.1,14.8,29.89,SW,223,4.0,20.0,29,0.00,,---,0.00,VWS V14.01,2013-04-03 17:50:00,
2013-04-03 13:52:00,45.2,15.6,29.89,West,280,13.0,18.0,30,0.00,,---,0.00,VWS V14.01,2013-04-03 17:52:00,
2013-04-03 13:55:00,45.3,16.5,29.89,WSW,242,3.0,19.0,31,0.00,,---,0.00,VWS V14.01,2013-04-03 17:55:00,
2013-04-03 13:57:00,45.8,16.1,29.89,SW,215,1.0,13.0,30,0.00,,---,0.00,VWS V14.01,2013-04-03 17:57:00,
2013-04-03 14:00:00,46.1,18.6,29.89,West,263,12.0,16.0,33,0.00,,---,0.00,VWS V14.01,2013-04-03 18:00:00,
2013-04-03 14:02:00,46.1,14.0,29.89,NW,324,0.0,19.0,27,0.00,,---,0.00,VWS V14.01,2013-04-03 18:02:00,
2013-04-03 14:05:00,46.0,15.5,29.89,WSW,240,9.0,19.0,29,0.00,,---,0.00,VWS V14.01,2013-04-03 18:05:00,
2013-04-03 14:07:00,46.1,14.8,29.89,SW,222,5.0,18.0,28,0.00,,---,0.00,VWS V14.01,2013-04-03 18:07:00,
2013-04-03 14:10:00,46.0,13.9,29.89,North,5,3.0,18.0,27,0.00,,---,0.00,VWS V14.01,2013-04-03 18:10:00,
2013-04-03 14:12:00,46.0,15.5,29.89,SE,125,0.0,12.0,29,0.00,,---,0.00,VWS V14.01,2013-04-03 18:12:00,
2013-04-03 14:15:00,46.0,15.5,29.88,WSW,258,7.0,12.0,29,0.00,,---,0.00,VWS V14.01,2013-04-03 18:15:00,
2013-04-03 14:18:00,45.2,14.9,29.88,WSW,248,6.0,17.0,29,0.00,,---,0.00,VWS V14.01,2013-04-03 18:18:00,
2013-04-03 14:20:00,45.2,14.9,29.88,WSW,248,6.0,17.0,29,0.00,,---,0.00,VWS V14.01,2013-04-03 18:20:00,
2013-04-03 14:23:00,45.3,14.1,29.89,NNE,30,2.0,17.0,28,0.00,,---,0.00,VWS V14.01,2013-04-03 18:23:00,
2013-04-03 14:25:00,45.3,14.1,29.89,NNE,30,2.0,17.0,28,0.00,,---,0.00,VWS V14.01,2013-04-03 18:25:00,
2013-04-03 14:28:00,45.6,15.2,29.89,South,169,4.0,16.0,29,0.00,,---,0.00,VWS V14.01,2013-04-03 18:28:00,
2013-04-03 14:30:00,45.6,15.2,29.89,South,169,4.0,16.0,29,0.00,,---,0.00,VWS V14.01,2013-04-03 18:30:00,
2013-04-03 14:33:00,46.2,15.7,29.88,WSW,253,10.0,18.0,29,0.00,,---,0.00,VWS V14.01,2013-04-03 18:33:00,
2013-04-03 14:35:00,46.2,15.7,29.88,WSW,253,10.0,18.0,29,0.00,,---,0.00,VWS V14.01,2013-04-03 18:35:00,
2013-04-03 14:38:00,46.3,15.0,29.88,West,259,8.0,18.0,28,0.00,,---,0.00,VWS V14.01,2013-04-03 18:38:00,
2013-04-03 14:40:00,46.3,15.0,29.88,West,259,8.0,18.0,28,0.00,,---,0.00,VWS V14.01,2013-04-03 18:40:00,
2013-04-03 14:43:00,46.5,15.2,29.88,South,182,2.0,25.0,28,0.00,,---,0.00,VWS V14.01,2013-04-03 18:43:00,
2013-04-03 14:45:00,46.5,15.2,29.88,South,182,2.0,25.0,28,0.00,,---,0.00,VWS V14.01,2013-04-03 18:45:00,
2013-04-03 14:48:00,46.3,15.0,29.88,SSW,205,9.0,22.0,28,0.00,,---,0.00,VWS V14.01,2013-04-03 18:48:00,
2013-04-03 14:50:00,46.3,15.0,29.88,SSW,205,9.0,22.0,28,0.00,,---,0.00,VWS V14.01,2013-04-03 18:50:00,
2013-04-03 14:53:00,46.2,14.9,29.88,WNW,290,12.0,19.0,28,0.00,,---,0.00,VWS V14.01,2013-04-03 18:53:00,
2013-04-03 14:55:00,46.2,14.9,29.88,WNW,290,12.0,19.0,28,0.00,,---,0.00,VWS V14.01,2013-04-03 18:55:00,
2013-04-03 14:58:00,46.1,13.1,29.88,West,263,9.0,15.0,26,0.00,,---,0.00,VWS V14.01,2013-04-03 18:58:00,
2013-04-03 15:00:00,46.1,13.1,29.88,West,264,10.0,23.0,26,0.00,,---,0.00,VWS V14.01,2013-04-03 19:00:00,
2013-04-03 15:03:00,46.7,16.1,29.88,SW,222,5.0,13.0,29,0.00,,---,0.00,VWS V14.01,2013-04-03 19:03:00,
2013-04-03 15:05:00,46.6,16.1,29.88,SW,215,12.0,16.0,29,0.00,,---,0.00,VWS V14.01,2013-04-03 19:05:00,
2013-04-03 15:09:00,46.1,15.6,29.88,West,276,2.0,19.0,29,0.00,,---,0.00,VWS V14.01,2013-04-03 19:09:00,
2013-04-03 15:10:00,46.3,14.2,29.88,WSW,257,11.0,18.0,27,0.00,,---,0.00,VWS V14.01,2013-04-03 19:10:00,
2013-04-03 15:14:00,46.7,16.9,29.88,WNW,285,10.0,11.0,30,0.00,,---,0.00,VWS V14.01,2013-04-03 19:14:00,
2013-04-03 15:15:00,46.7,16.1,29.88,West,273,4.0,19.0,29,0.00,,---,0.00,VWS V14.01,2013-04-03 19:15:00,
2013-04-03 15:19:00,47.1,15.7,29.88,East,99,1.0,16.0,28,0.00,,---,0.00,VWS V14.01,2013-04-03 19:19:00,
2013-04-03 15:20:00,47.0,16.4,29.88,WSW,247,3.0,16.0,29,0.00,,---,0.00,VWS V14.01,2013-04-03 19:20:00,
2013-04-03 15:25:00,47.2,15.8,29.88,WNW,286,6.0,19.0,28,0.00,,---,0.00,VWS V14.01,2013-04-03 19:25:00,
2013-04-03 15:30:00,46.5,14.3,29.88,West,269,5.0,17.0,27,0.00,,---,0.00,VWS V14.01,2013-04-03 19:30:00,
2013-04-03 15:35:00,46.9,14.7,29.88,West,276,5.0,21.0,27,0.00,,---,0.00,VWS V14.01,2013-04-03 19:35:00,
2013-04-03 15:40:00,46.9,13.8,29.88,WSW,244,18.0,21.0,26,0.00,,---,0.00,VWS V14.01,2013-04-03 19:40:00,
2013-04-03 15:41:00,47.0,15.6,29.88,WSW,254,7.0,18.0,28,0.00,,---,0.00,VWS V14.01,2013-04-03 19:41:00,
2013-04-03 15:45:00,47.0,14.8,29.88,WNW,283,14.0,18.0,27,0.00,,---,0.00,VWS V14.01,2013-04-03 19:45:00,
2013-04-03 15:46:00,46.4,14.2,29.88,WSW,240,7.0,17.0,27,0.00,,---,0.00,VWS V14.01,2013-04-03 19:46:00,
2013-04-03 15:50:00,46.3,12.4,29.88,WSW,240,2.0,17.0,25,0.00,,---,0.00,VWS V14.01,2013-04-03 19:50:00,
2013-04-03 15:52:00,46.2,14.1,29.88,WNW,282,6.0,20.0,27,0.00,,---,0.00,VWS V14.01,2013-04-03 19:52:00,
2013-04-03 15:55:00,46.3,14.2,29.88,WSW,245,3.0,20.0,27,0.00,,---,0.00,VWS V14.01,2013-04-03 19:55:00,
2013-04-03 15:57:00,46.6,16.8,29.88,WSW,246,5.0,16.0,30,0.00,,---,0.00,VWS V14.01,2013-04-03 19:57:00,
2013-04-03 16:00:00,46.7,14.5,29.88,SSW,212,4.0,16.0,27,0.00,,---,0.00,VWS V14.01,2013-04-03 20:00:00,
2013-04-03 16:03:00,46.8,12.9,29.88,SW,232,9.0,17.0,25,0.00,,---,0.00,VWS V14.01,2013-04-03 20:03:00,
2013-04-03 16:05:00,46.8,12.9,29.88,WNW,283,4.0,17.0,25,0.00,,---,0.00,VWS V14.01,2013-04-03 20:05:00,
2013-04-03 16:08:00,46.7,13.6,29.88,WSW,250,4.0,17.0,26,0.00,,---,0.00,VWS V14.01,2013-04-03 20:08:00,
2013-04-03 16:10:00,46.7,13.6,29.88,WSW,250,4.0,17.0,26,0.00,,---,0.00,VWS V14.01,2013-04-03 20:10:00,
2013-04-03 16:13:00,47.0,13.0,29.88,SW,232,2.0,20.0,25,0.00,,---,0.00,VWS V14.01,2013-04-03 20:13:00,
2013-04-03 16:15:00,47.0,13.0,29.88,SW,232,2.0,20.0,25,0.00,,---,0.00,VWS V14.01,2013-04-03 20:15:00,
2013-04-03 16:18:00,46.7,12.8,29.89,WNW,298,5.0,19.0,25,0.00,,---,0.00,VWS V14.01,2013-04-03 20:18:00,
2013-04-03 16:20:00,46.7,12.8,29.89,WNW,298,5.0,19.0,25,0.00,,---,0.00,VWS V14.01,2013-04-03 20:20:00,
2013-04-03 16:23:00,46.5,13.5,29.88,West,261,16.0,17.0,26,0.00,,---,0.00,VWS V14.01,2013-04-03 20:23:00,
2013-04-03 16:25:00,46.5,13.5,29.88,West,261,16.0,17.0,26,0.00,,---,0.00,VWS V14.01,2013-04-03 20:25:00,
2013-04-03 16:28:00,46.1,12.2,29.88,WNW,290,9.0,18.0,25,0.00,,---,0.00,VWS V14.01,2013-04-03 20:28:00,
2013-04-03 16:30:00,46.1,12.2,29.88,WNW,290,9.0,18.0,25,0.00,,---,0.00,VWS V14.01,2013-04-03 20:30:00,
2013-04-03 16:33:00,46.5,15.2,29.88,West,263,13.0,13.0,28,0.00,,---,0.00,VWS V14.01,2013-04-03 20:33:00,
2013-04-03 16:35:00,46.5,15.2,29.88,West,263,13.0,13.0,28,0.00,,---,0.00,VWS V14.01,2013-04-03 20:35:00,
2013-04-03 16:38:00,46.2,13.2,29.87,WNW,292,3.0,16.0,26,0.00,,---,0.00,VWS V14.01,2013-04-03 20:38:00,
2013-04-03 16:40:00,46.2,13.2,29.87,WNW,292,3.0,16.0,26,0.00,,---,0.00,VWS V14.01,2013-04-03 20:40:00,
2013-04-03 16:43:00,46.4,15.1,29.88,WSW,254,14.0,18.0,28,0.00,,---,0.00,VWS V14.01,2013-04-03 20:43:00,
2013-04-03 16:45:00,46.4,15.1,29.88,WSW,254,14.0,18.0,28,0.00,,---,0.00,VWS V14.01,2013-04-03 20:45:00,
2013-04-03 16:48:00,46.6,15.3,29.88,WSW,240,6.0,22.0,28,0.00,,---,0.00,VWS V14.01,2013-04-03 20:48:00,
2013-04-03 16:50:00,46.6,15.3,29.88,WSW,240,6.0,22.0,28,0.00,,---,0.00,VWS V14.01,2013-04-03 20:50:00,
2013-04-03 16:53:00,46.6,14.4,29.88,WNW,294,13.0,16.0,27,0.00,,---,0.00,VWS V14.01,2013-04-03 20:53:00,
2013-04-03 16:55:00,46.6,14.4,29.88,NW,319,9.0,16.0,27,0.00,,---,0.00,VWS V14.01,2013-04-03 20:55:00,
2013-04-03 16:58:00,46.3,14.2,29.88,SSW,201,1.0,18.0,27,0.00,,---,0.00,VWS V14.01,2013-04-03 20:58:00,
2013-04-03 17:00:00,46.3,14.2,29.88,SSW,201,1.0,18.0,27,0.00,,---,0.00,VWS V14.01,2013-04-03 21:00:00,
2013-04-03 17:03:00,46.4,15.9,29.88,SE,134,1.0,5.0,29,0.00,,---,0.00,VWS V14.01,2013-04-03 21:03:00,
2013-04-03 17:05:00,46.4,15.9,29.88,SSW,207,5.0,19.0,29,0.00,,---,0.00,VWS V14.01,2013-04-03 21:05:00,
2013-04-03 17:08:00,46.1,14.8,29.88,WSW,244,1.0,4.0,28,0.00,,---,0.00,VWS V14.01,2013-04-03 21:08:00,
2013-04-03 17:10:00,46.1,14.8,29.88,WSW,251,3.0,19.0,28,0.00,,---,0.00,VWS V14.01,2013-04-03 21:10:00,
2013-04-03 17:14:00,46.1,16.4,29.88,SSW,213,5.0,16.0,30,0.00,,---,0.00,VWS V14.01,2013-04-03 21:14:00,
2013-04-03 17:15:00,46.0,16.3,29.88,West,277,1.0,13.0,30,0.00,,---,0.00,VWS V14.01,2013-04-03 21:15:00,
2013-04-03 17:19:00,46.0,16.3,29.88,WNW,285,7.0,10.0,30,0.00,,---,0.00,VWS V14.01,2013-04-03 21:19:00,
2013-04-03 17:20:00,46.0,16.3,29.88,WNW,285,10.0,16.0,30,0.00,,---,0.00,VWS V14.01,2013-04-03 21:20:00,
2013-04-03 17:24:00,46.0,15.5,29.88,WSW,240,4.0,13.0,29,0.00,,---,0.00,VWS V14.01,2013-04-03 21:24:00,
2013-04-03 17:25:00,46.1,16.4,29.88,West,262,7.0,10.0,30,0.00,,---,0.00,VWS V14.01,2013-04-03 21:25:00,
2013-04-03 17:29:00,45.8,16.1,29.88,WSW,255,2.0,12.0,30,0.00,,---,0.00,VWS V14.01,2013-04-03 21:29:00,
2013-04-03 17:30:00,45.9,17.0,29.88,SW,227,1.0,21.0,31,0.00,,---,0.00,VWS V14.01,2013-04-03 21:30:00,
2013-04-03 17:34:00,45.7,17.5,29.88,WNW,303,9.0,9.0,32,0.00,,---,0.00,VWS V14.01,2013-04-03 21:34:00,
2013-04-03 17:35:00,45.8,16.9,29.88,WSW,251,2.0,12.0,31,0.00,,---,0.00,VWS V14.01,2013-04-03 21:35:00,
2013-04-03 17:39:00,45.6,15.2,29.89,WSW,258,9.0,16.0,29,0.00,,---,0.00,VWS V14.01,2013-04-03 21:39:00,
2013-04-03 17:40:00,45.6,16.0,29.88,West,265,7.0,21.0,30,0.00,,---,0.00,VWS V14.01,2013-04-03 21:40:00,
2013-04-03 17:45:00,45.3,14.9,29.89,West,268,2.0,15.0,29,0.00,,---,0.00,VWS V14.01,2013-04-03 21:45:00,
2013-04-03 17:50:00,45.0,13.9,29.90,WSW,240,11.0,22.0,28,0.00,,---,0.00,VWS V14.01,2013-04-03 21:50:00,
2013-04-03 17:55:00,44.6,12.7,29.90,WSW,248,2.0,15.0,27,0.00,,---,0.00,VWS V14.01,2013-04-03 21:55:00,
2013-04-03 18:00:00,44.3,12.4,29.90,SW,228,10.0,14.0,27,0.00,,---,0.00,VWS V14.01,2013-04-03 22:00:00,
2013-04-03 18:05:00,44.2,12.4,29.90,SSW,211,7.0,24.0,27,0.00,,---,0.00,VWS V14.01,2013-04-03 22:05:00,
2013-04-03 18:06:00,44.1,12.3,29.90,SSW,205,2.0,10.0,27,0.00,,---,0.00,VWS V14.01,2013-04-03 22:06:00,
2013-04-03 18:10:00,44.0,12.2,29.90,West,270,7.0,18.0,27,0.00,,---,0.00,VWS V14.01,2013-04-03 22:10:00,
2013-04-03 18:11:00,43.9,12.1,29.90,West,263,14.0,14.0,27,0.00,,---,0.00,VWS V14.01,2013-04-03 22:11:00,
2013-04-03 18:15:00,43.8,11.2,29.90,South,190,6.0,16.0,26,0.00,,---,0.00,VWS V14.01,2013-04-03 22:15:00,
2013-04-03 18:17:00,43.7,11.9,29.91,WSW,258,6.0,14.0,27,0.00,,---,0.00,VWS V14.01,2013-04-03 22:17:00,
2013-04-03 18:20:00,43.6,11.8,29.91,West,269,3.0,14.0,27,0.00,,---,0.00,VWS V14.01,2013-04-03 22:20:00,
2013-04-03 18:22:00,43.6,11.0,29.91,WNW,299,11.0,15.0,26,0.00,,---,0.00,VWS V14.01,2013-04-03 22:22:00,
2013-04-03 18:25:00,43.5,11.8,29.91,West,265,7.0,15.0,27,0.00,,---,0.00,VWS V14.01,2013-04-03 22:25:00,
2013-04-03 18:27:00,43.4,12.5,29.92,NW,309,10.0,16.0,28,0.00,,---,0.00,VWS V14.01,2013-04-03 22:27:00,
2013-04-03 18:30:00,43.4,12.5,29.92,SW,226,4.0,16.0,28,0.00,,---,0.00,VWS V14.01,2013-04-03 22:30:00,
2013-04-03 18:32:00,43.3,12.4,29.92,NNE,13,0.0,12.0,28,0.00,,---,0.00,VWS V14.01,2013-04-03 22:32:00,
2013-04-03 18:35:00,43.2,12.3,29.92,WNW,286,11.0,12.0,28,0.00,,---,0.00,VWS V14.01,2013-04-03 22:35:00,
2013-04-03 18:38:00,43.1,12.2,29.92,WSW,243,2.0,14.0,28,0.00,,---,0.00,VWS V14.01,2013-04-03 22:38:00,
2013-04-03 18:40:00,43.1,12.2,29.92,SW,231,2.0,14.0,28,0.00,,---,0.00,VWS V14.01,2013-04-03 22:40:00,
2013-04-03 18:43:00,42.9,12.9,29.93,West,269,5.0,18.0,29,0.00,,---,0.00,VWS V14.01,2013-04-03 22:43:00,
2013-04-03 18:45:00,42.9,12.9,29.93,West,269,5.0,18.0,29,0.00,,---,0.00,VWS V14.01,2013-04-03 22:45:00,
2013-04-03 18:48:00,42.8,13.5,29.93,WSW,240,4.0,16.0,30,0.00,,---,0.00,VWS V14.01,2013-04-03 22:48:00,
2013-04-03 18:50:00,42.8,13.5,29.93,WSW,240,4.0,16.0,30,0.00,,---,0.00,VWS V14.01,2013-04-03 22:50:00,
2013-04-03 18:53:00,42.5,13.3,29.94,WSW,254,13.0,22.0,30,0.00,,---,0.00,VWS V14.01,2013-04-03 22:53:00,
2013-04-03 18:55:00,42.5,13.3,29.94,WSW,254,13.0,22.0,30,0.00,,---,0.00,VWS V14.01,2013-04-03 22:55:00,
2013-04-03 18:58:00,42.4,12.4,29.94,West,269,6.0,16.0,29,0.00,,---,0.00,VWS V14.01,2013-04-03 22:58:00,
2013-04-03 19:00:00,42.4,12.4,29.94,West,269,6.0,16.0,29,0.00,,---,0.00,VWS V14.01,2013-04-03 23:00:00,
2013-04-03 19:03:00,42.2,12.2,29.94,West,271,2.0,15.0,29,0.00,,---,0.00,VWS V14.01,2013-04-03 23:03:00,
2013-04-03 19:05:00,42.2,12.2,29.94,West,271,2.0,15.0,29,0.00,,---,0.00,VWS V14.01,2013-04-03 23:05:00,
2013-04-03 19:08:00,41.9,12.7,29.95,SW,229,4.0,18.0,30,0.00,,---,0.00,VWS V14.01,2013-04-03 23:08:00,
2013-04-03 19:10:00,41.9,12.7,29.95,SW,229,4.0,18.0,30,0.00,,---,0.00,VWS V14.01,2013-04-03 23:10:00,
2013-04-03 19:13:00,41.6,15.3,29.95,SW,217,0.0,15.0,34,0.00,,---,0.00,VWS V14.01,2013-04-03 23:13:00,
2013-04-03 19:15:00,41.6,15.3,29.95,SW,217,0.0,15.0,34,0.00,,---,0.00,VWS V14.01,2013-04-03 23:15:00,
2013-04-03 19:18:00,41.2,15.6,29.95,WSW,248,3.0,13.0,35,0.00,,---,0.00,VWS V14.01,2013-04-03 23:18:00,
2013-04-03 19:20:00,41.2,15.6,29.95,WSW,248,3.0,13.0,35,0.00,,---,0.00,VWS V14.01,2013-04-03 23:20:00,
2013-04-03 19:23:00,40.8,15.9,29.96,SW,215,4.0,14.0,36,0.00,,---,0.00,VWS V14.01,2013-04-03 23:23:00,
2013-04-03 19:25:00,40.8,15.9,29.96,SW,215,4.0,14.0,36,0.00,,---,0.00,VWS V14.01,2013-04-03 23:25:00,
2013-04-03 19:28:00,40.6,15.1,29.96,WNW,299,0.0,15.0,35,0.00,,---,0.00,VWS V14.01,2013-04-03 23:28:00,
2013-04-03 19:30:00,40.6,15.1,29.96,WNW,299,0.0,15.0,35,0.00,,---,0.00,VWS V14.01,2013-04-03 23:30:00,
2013-04-03 19:33:00,40.3,15.5,29.97,WNW,291,2.0,11.0,36,0.00,,---,0.00,VWS V14.01,2013-04-03 23:33:00,
2013-04-03 19:35:00,40.3,15.5,29.97,WNW,291,2.0,11.0,36,0.00,,---,0.00,VWS V14.01,2013-04-03 23:35:00,
2013-04-03 19:38:00,40.1,14.7,29.97,West,280,2.0,10.0,35,0.00,,---,0.00,VWS V14.01,2013-04-03 23:38:00,
2013-04-03 19:40:00,40.1,14.7,29.97,West,280,2.0,10.0,35,0.00,,---,0.00,VWS V14.01,2013-04-03 23:40:00,
2013-04-03 19:43:00,40.0,14.6,29.98,West,273,10.0,18.0,35,0.00,,---,0.00,VWS V14.01,2013-04-03 23:43:00,
2013-04-03 19:45:00,40.0,14.6,29.98,West,273,10.0,18.0,35,0.00,,---,0.00,VWS V14.01,2013-04-03 23:45:00,
2013-04-03 19:48:00,39.8,14.4,29.98,West,271,11.0,12.0,35,0.00,,---,0.00,VWS V14.01,2013-04-03 23:48:00,
2013-04-03 19:50:00,39.8,14.4,29.98,West,271,11.0,12.0,35,0.00,,---,0.00,VWS V14.01,2013-04-03 23:50:00,
2013-04-03 19:53:00,39.8,14.4,29.98,WSW,254,3.0,5.0,35,0.00,,---,0.00,VWS V14.01,2013-04-03 23:53:00,
2013-04-03 19:55:00,39.7,14.3,29.98,SW,222,3.0,11.0,35,0.00,,---,0.00,VWS V14.01,2013-04-03 23:55:00,
2013-04-03 19:59:00,39.6,14.9,29.98,SW,227,2.0,3.0,36,0.00,,---,0.00,VWS V14.01,2013-04-03 23:59:00,
2013-04-03 20:00:00,39.7,15.6,29.98,SW,234,0.0,13.0,37,0.00,,---,0.00,VWS V14.01,2013-04-04 00:00:00,
2013-04-03 20:04:00,39.4,15.9,29.99,SW,223,3.0,11.0,38,0.00,,---,0.00,VWS V14.01,2013-04-04 00:04:00,
2013-04-03 20:05:00,39.4,15.9,29.99,West,267,3.0,12.0,38,0.00,,---,0.00,VWS V14.01,2013-04-04 00:05:00,
2013-04-03 20:09:00,39.1,15.6,30.00,SSW,193,3.0,14.0,38,0.00,,---,0.00,VWS V14.01,2013-04-04 00:09:00,
2013-04-03 20:10:00,39.2,15.7,29.99,WNW,282,9.0,11.0,38,0.00,,---,0.00,VWS V14.01,2013-04-04 00:10:00,
2013-04-03 20:14:00,38.9,15.5,30.00,SW,223,6.0,6.0,38,0.00,,---,0.00,VWS V14.01,2013-04-04 00:14:00,
2013-04-03 20:15:00,39.0,15.6,30.00,WSW,255,3.0,14.0,38,0.00,,---,0.00,VWS V14.01,2013-04-04 00:15:00,
2013-04-03 20:20:00,38.8,15.4,30.00,West,269,10.0,14.0,38,0.00,,---,0.00,VWS V14.01,2013-04-04 00:20:00,
2013-04-03 20:25:00,38.6,15.8,30.00,WNW,294,7.0,7.0,39,0.00,,---,0.00,VWS V14.01,2013-04-04 00:25:00,
2013-04-03 20:30:00,38.5,15.7,30.00,West,268,0.0,11.0,39,0.00,,---,0.00,VWS V14.01,2013-04-04 00:30:00,
2013-04-03 20:35:00,38.3,16.7,30.01,WSW,255,9.0,9.0,41,0.00,,---,0.00,VWS V14.01,2013-04-04 00:35:00,
2013-04-03 20:40:00,38.2,16.0,30.01,WNW,292,1.0,16.0,40,0.00,,---,0.00,VWS V14.01,2013-04-04 00:40:00,
2013-04-03 20:41:00,38.2,16.0,30.01,SSW,211,11.0,11.0,40,0.00,,---,0.00,VWS V14.01,2013-04-04 00:41:00,
2013-04-03 20:45:00,38.0,15.8,30.01,SW,234,0.0,11.0,40,0.00,,---,0.00,VWS V14.01,2013-04-04 00:45:00,
2013-04-03 20:46:00,37.9,16.3,30.02,SW,234,0.0,0.0,41,0.00,,---,0.00,VWS V14.01,2013-04-04 00:46:00,
2013-04-03 20:50:00,37.8,16.2,30.02,SW,234,0.0,0.0,41,0.00,,---,0.00,VWS V14.01,2013-04-04 00:50:00,
2013-04-03 20:51:00,37.7,16.1,30.02,SW,234,0.0,0.0,41,0.00,,---,0.00,VWS V14.01,2013-04-04 00:51:00,
2013-04-03 20:55:00,37.7,16.1,30.03,SW,234,0.0,0.0,41,0.00,,---,0.00,VWS V14.01,2013-04-04 00:55:00,
2013-04-03 20:56:00,37.5,16.5,30.03,SW,234,0.0,0.0,42,0.00,,---,0.00,VWS V14.01,2013-04-04 00:56:00,
2013-04-03 21:00:00,37.5,16.5,30.03,SW,234,0.0,0.0,42,0.00,,---,0.00,VWS V14.01,2013-04-04 01:00:00,
2013-04-03 21:02:00,37.4,16.4,30.03,SW,234,0.0,0.0,42,0.00,,---,0.00,VWS V14.01,2013-04-04 01:02:00,
2013-04-03 21:05:00,37.4,15.9,30.03,SW,234,0.0,0.0,41,0.00,,---,0.00,VWS V14.01,2013-04-04 01:05:00,
2013-04-03 21:07:00,37.3,16.3,30.03,SW,234,0.0,0.0,42,0.00,,---,0.00,VWS V14.01,2013-04-04 01:07:00,
2013-04-03 21:10:00,37.2,16.2,30.03,SW,234,0.0,0.0,42,0.00,,---,0.00,VWS V14.01,2013-04-04 01:10:00,
2013-04-03 21:12:00,37.0,16.6,30.03,WNW,294,0.0,5.0,43,0.00,,---,0.00,VWS V14.01,2013-04-04 01:12:00,
2013-04-03 21:15:00,37.0,16.6,30.03,WNW,286,4.0,5.0,43,0.00,,---,0.00,VWS V14.01,2013-04-04 01:15:00,
2013-04-03 21:17:00,36.8,17.0,30.03,WSW,247,1.0,13.0,44,0.00,,---,0.00,VWS V14.01,2013-04-04 01:17:00,
2013-04-03 21:20:00,36.8,16.4,30.03,West,269,7.0,13.0,43,0.00,,---,0.00,VWS V14.01,2013-04-04 01:20:00,
2013-04-03 21:23:00,36.6,16.8,30.03,SW,223,3.0,11.0,44,0.00,,---,0.00,VWS V14.01,2013-04-04 01:23:00,
2013-04-03 21:25:00,36.6,16.8,30.03,WSW,251,4.0,11.0,44,0.00,,---,0.00,VWS V14.01,2013-04-04 01:25:00,
2013-04-03 21:28:00,36.4,17.1,30.04,SW,221,0.0,12.0,45,0.00,,---,0.00,VWS V14.01,2013-04-04 01:28:00,
2013-04-03 21:30:00,36.4,17.1,30.04,SW,221,0.0,12.0,45,0.00,,---,0.00,VWS V14.01,2013-04-04 01:30:00,
2013-04-03 21:33:00,36.1,17.3,30.04,West,261,0.0,7.0,46,0.00,,---,0.00,VWS V14.01,2013-04-04 01:33:00,
2013-04-03 21:35:00,36.1,17.3,30.04,West,261,0.0,7.0,46,0.00,,---,0.00,VWS V14.01,2013-04-04 01:35:00,
2013-04-03 21:38:00,35.9,16.6,30.04,SW,226,4.0,7.0,45,0.00,,---,0.00,VWS V14.01,2013-04-04 01:38:00,
2013-04-03 21:40:00,35.9,16.6,30.04,SW,226,4.0,7.0,45,0.00,,---,0.00,VWS V14.01,2013-04-04 01:40:00,
2013-04-03 21:43:00,35.8,17.1,30.05,West,265,0.0,6.0,46,0.00,,---,0.00,VWS V14.01,2013-04-04 01:43:00,
2013-04-03 21:45:00,35.8,17.1,30.05,West,265,0.0,6.0,46,0.00,,---,0.00,VWS V14.01,2013-04-04 01:45:00,
2013-04-03 21:48:00,35.6,16.9,30.05,WSW,257,1.0,1.0,46,0.00,,---,0.00,VWS V14.01,2013-04-04 01:48:00,
2013-04-03 21:50:00,35.6,16.9,30.05,WSW,257,0.0,15.0,46,0.00,,---,0.00,VWS V14.01,2013-04-04 01:50:00,
2013-04-03 21:53:00,35.5,17.3,30.05,West,271,4.0,4.0,47,0.00,,---,0.00,VWS V14.01,2013-04-04 01:53:00,
2013-04-03 21:55:00,35.5,17.3,30.05,SW,227,0.0,10.0,47,0.00,,---,0.00,VWS V14.01,2013-04-04 01:55:00,
2013-04-03 21:58:00,35.4,16.7,30.06,West,280,0.0,1.0,46,0.00,,---,0.00,VWS V14.01,2013-04-04 01:58:00,
2013-04-03 22:00:00,35.4,16.7,30.06,West,280,1.0,9.0,46,0.00,,---,0.00,VWS V14.01,2013-04-04 02:00:00,
2013-04-03 22:03:00,35.3,17.1,30.06,NW,308,3.0,3.0,47,0.00,,---,0.00,VWS V14.01,2013-04-04 02:03:00,
2013-04-03 22:05:00,35.3,17.1,30.06,West,271,0.0,5.0,47,0.00,,---,0.00,VWS V14.01,2013-04-04 02:05:00,
2013-04-03 22:09:00,35.2,17.0,30.06,West,273,3.0,3.0,47,0.00,,---,0.00,VWS V14.01,2013-04-04 02:09:00,
2013-04-03 22:10:00,35.2,17.0,30.06,West,273,1.0,9.0,47,0.00,,---,0.00,VWS V14.01,2013-04-04 02:10:00,
2013-04-03 22:14:00,35.1,16.9,30.06,NW,306,3.0,4.0,47,0.00,,---,0.00,VWS V14.01,2013-04-04 02:14:00,
2013-04-03 22:15:00,35.1,17.4,30.06,WNW,294,0.0,4.0,48,0.00,,---,0.00,VWS V14.01,2013-04-04 02:15:00,
2013-04-03 22:20:00,35.0,16.8,30.07,WSW,255,2.0,5.0,47,0.00,,---,0.00,VWS V14.01,2013-04-04 02:20:00,
2013-04-03 22:25:00,34.9,16.7,30.06,NNW,332,0.0,5.0,47,0.00,,---,0.00,VWS V14.01,2013-04-04 02:25:00,
2013-04-03 22:30:00,34.7,17.0,30.06,West,272,2.0,4.0,48,0.00,,---,0.00,VWS V14.01,2013-04-04 02:30:00,
2013-04-03 22:35:00,34.5,16.9,30.07,SW,220,1.0,3.0,48,0.00,,---,0.00,VWS V14.01,2013-04-04 02:35:00,
2013-04-03 22:40:00,34.4,16.8,30.07,WNW,283,0.0,5.0,48,0.00,,---,0.00,VWS V14.01,2013-04-04 02:40:00,
2013-04-03 22:45:00,34.4,16.8,30.07,West,263,3.0,7.0,48,0.00,,---,0.00,VWS V14.01,2013-04-04 02:45:00,
2013-04-03 22:50:00,34.4,16.8,30.08,West,265,4.0,7.0,48,0.00,,---,0.00,VWS V14.01,2013-04-04 02:50:00,
2013-04-03 22:51:00,34.4,16.8,30.08,NW,304,10.0,11.0,48,0.00,,---,0.00,VWS V14.01,2013-04-04 02:51:00,
2013-04-03 22:55:00,34.4,16.8,30.08,SW,227,0.0,11.0,48,0.00,,---,0.00,VWS V14.01,2013-04-04 02:55:00,
2013-04-03 22:56:00,34.4,16.8,30.08,WSW,246,3.0,5.0,48,0.00,,---,0.00,VWS V14.01,2013-04-04 02:56:00,
2013-04-03 23:00:00,34.4,16.8,30.08,WSW,246,0.0,5.0,48,0.00,,---,0.00,VWS V14.01,2013-04-04 03:00:00,
2013-04-03 23:02:00,34.4,16.8,30.08,WSW,251,2.0,9.0,48,0.00,,---,0.00,VWS V14.01,2013-04-04 03:02:00,
2013-04-03 23:05:00,34.4,16.3,30.08,West,271,12.0,12.0,47,0.00,,---,0.00,VWS V14.01,2013-04-04 03:05:00,
2013-04-03 23:07:00,34.4,16.8,30.09,West,278,1.0,12.0,48,0.00,,---,0.00,VWS V14.01,2013-04-04 03:07:00,
2013-04-03 23:10:00,34.4,16.8,30.09,WNW,300,2.0,12.0,48,0.00,,---,0.00,VWS V14.01,2013-04-04 03:10:00,
2013-04-03 23:13:00,34.4,16.3,30.09,WNW,291,2.0,8.0,47,0.00,,---,0.00,VWS V14.01,2013-04-04 03:13:00,
2013-04-03 23:15:00,34.4,16.3,30.09,WNW,291,2.0,8.0,47,0.00,,---,0.00,VWS V14.01,2013-04-04 03:15:00,
2013-04-03 23:18:00,34.7,17.0,30.09,WNW,295,3.0,10.0,48,0.00,,---,0.00,VWS V14.01,2013-04-04 03:18:00,
2013-04-03 23:20:00,34.7,17.0,30.09,WNW,295,3.0,10.0,48,0.00,,---,0.00,VWS V14.01,2013-04-04 03:20:00,
2013-04-03 23:23:00,34.5,16.9,30.09,West,273,4.0,11.0,48,0.00,,---,0.00,VWS V14.01,2013-04-04 03:23:00,
2013-04-03 23:25:00,34.5,16.9,30.09,West,273,4.0,11.0,48,0.00,,---,0.00,VWS V14.01,2013-04-04 03:25:00,
2013-04-03 23:29:00,34.6,16.9,30.09,WNW,295,0.0,4.0,48,0.00,,---,0.00,VWS V14.01,2013-04-04 03:29:00,
2013-04-03 23:30:00,34.6,16.9,30.09,WSW,257,4.0,12.0,48,0.00,,---,0.00,VWS V14.01,2013-04-04 03:30:00,
2013-04-03 23:34:00,34.5,16.9,30.09,WNW,298,2.0,3.0,48,0.00,,---,0.00,VWS V14.01,2013-04-04 03:34:00,
2013-04-03 23:35:00,34.5,16.9,30.09,WNW,286,2.0,13.0,48,0.00,,---,0.00,VWS V14.01,2013-04-04 03:35:00,
2013-04-03 23:40:00,34.5,16.9,30.10,WSW,246,2.0,9.0,48,0.00,,---,0.00,VWS V14.01,2013-04-04 03:40:00,
2013-04-03 23:45:00,34.6,16.9,30.10,NW,309,0.0,13.0,48,0.00,,---,0.00,VWS V14.01,2013-04-04 03:45:00,
2013-04-03 23:50:00,34.6,16.9,30.10,West,261,1.0,10.0,48,0.00,,---,0.00,VWS V14.01,2013-04-04 03:50:00,
2013-04-03 23:55:00,34.6,17.4,30.10,West,276,4.0,6.0,49,0.00,,---,0.00,VWS V14.01,2013-04-04 03:55:00,